Location: Dal�� Lhota
(48.7500°N, 14.0167°E)
Time: 01:58:11
(UTC+00:00)

S-56A Canister/Altair - Pass Details

Date: 03 August 2021
Orbit: 632 x 2500 km, 38.9° (Epoch: 19 September)

Event Time Altitude Azimuth Distance (km) Brightness Sun altitude
Rises 20:16:59 0° 281° (W) 6,182 13.1 -13.6°
Reaches altitude 10° 20:23:06 10° 265° (W) 5,087 12.2 -14.3°
Maximum altitude 20:31:03 17° 231° (SW) 4,227 11.3 -15.1°
Drops below altitude 10° 20:38:08 10° 196° (SSW) 4,426 11.1 -15.8°
Enters shadow 20:40:47 - 185° (S) 4,749 11.1 -16.1°
